Ocean City, MD

11:42 AM EDT on August 28, 2016 (GMT -0400)
Ocean City Municipal

Weather History for KOXB - July, 2014

Change the Weather History Date:

Tuesday, July 22, 2014

  Actual Average (KSBY) Record (KSBY)
Temperature  
Mean Temperature 70 °F 77 °F  
Max Temperature 78 °F 87 °F 104 °F (1929)
Min Temperature 62 °F 67 °F 46 °F (2001)
Degree Days  
Heating Degree Days 0 0  
Month to date heating degree days 0  
Since 1 June heating degree days 19  
Since 1 July heating degree days 0  
Cooling Degree Days 4 12  
Month to date cooling degree days 259  
Year to date cooling degree days 570  
Since 1 June cooling degree days 486  
Growing Degree Days 20 (Base 50)    
Moisture  
Dew Point 66 °F    
Average Humidity 85    
Maximum Humidity 97    
Minimum Humidity 74    
Precipitation  
Precipitation 0.00 in 0.14 in 2.46 in (1999)
Month to date precipitation 2.90  
Year to date precipitation 25.16  
Snow  
Snow 0.00 in 0.00 in 0.00 in (2002)
Month to date snowfall 0.0  
Since 1 July snowfall 0.0  
Snow Depth -    
Sea Level Pressure  
Sea Level Pressure 30.16 in    
Wind  
Wind Speed 2 mph (SE)    
Max Wind Speed 7 mph    
Max Gust Speed -    
Visibility 9 miles    
Events      
T = Trace of Precipitation, MM = Missing Value Source: NWS Daily Summary

Daily Weather History Graph

Daily Weather History Graph

Search for Another Location

Airport or City:

Trip Planner

Search our weather history database for the weather conditions in past years. The results will help you decide how hot, cold, wet, or windy it might be!

Date:

Astronomy

Jul. 22, 2014 Rise Set
Actual Time 5:54 AM EDT 8:19 PM EDT
Civil Twilight 5:24 AM EDT 8:49 PM EDT
Nautical Twilight 4:46 AM EDT 9:26 PM EDT
Astronomical Twilight 4:05 AM EDT 10:07 PM EDT
Moon 2:25 AM EDT (7/22) 4:55 PM EDT (7/22)
Length of Visible Light 15h 24m
Length of Day
14h 24m
Waning Crescent, 16% of the Moon is Illuminated
Jul 22
Waning Crescent
Jul 26
New
Aug 3
First Quarter
Aug 10
Full
Aug 17
Last Quarter

Hourly Weather History & Observations

Time (EDT) Temp. Dew Point Humidity Pressure Visibility Wind Dir Wind Speed Gust Speed Precip Events Conditions
12:53 AM 64.9 °F 63.0 °F 93% 30.18 in 6.0 mi Calm Calm - N/A   Clear
1:53 AM 64.0 °F 63.0 °F 96% 30.18 in 7.0 mi Calm Calm - N/A   Clear
2:53 AM 63.0 °F 62.1 °F 97% 30.17 in 4.0 mi NNW 3.5 mph - N/A   Clear
3:53 AM 63.0 °F 62.1 °F 97% 30.17 in 6.0 mi Calm Calm - N/A   Clear
4:53 AM 62.1 °F 61.0 °F 96% 30.17 in 6.0 mi Calm Calm - N/A   Clear
5:53 AM 62.1 °F 61.0 °F 96% 30.17 in 6.0 mi Calm Calm - N/A   Clear
6:53 AM 66.0 °F 64.0 °F 93% 30.19 in 6.0 mi Calm Calm - N/A   Clear
7:53 AM 72.0 °F 69.1 °F 91% 30.20 in 8.0 mi East 5.8 mph - N/A   Clear
8:53 AM 73.9 °F 69.1 °F 85% 30.21 in 10.0 mi East 5.8 mph - N/A   Clear
10:53 AM 75.9 °F 68.0 °F 76% 30.20 in 10.0 mi ENE 4.6 mph - N/A   Clear
11:53 AM 75.9 °F 68.0 °F 76% 30.19 in 10.0 mi SE 4.6 mph - N/A   Clear
1:53 PM 77.0 °F 69.1 °F 76% 30.18 in 10.0 mi South 6.9 mph - N/A   Clear
2:53 PM 77.0 °F 69.1 °F 76% 30.17 in 10.0 mi Variable 4.6 mph - N/A   Clear
3:53 PM 77.0 °F 68.0 °F 74% 30.15 in 10.0 mi SE 4.6 mph - N/A   Clear
4:53 PM 75.9 °F 68.0 °F 76% 30.15 in 10.0 mi Variable 4.6 mph - N/A   Clear
5:53 PM 77.0 °F 69.1 °F 76% 30.14 in 10.0 mi SSE 5.8 mph - N/A   Clear
6:53 PM 75.0 °F 68.0 °F 79% 30.13 in 10.0 mi South 4.6 mph - N/A   Clear
7:04 PM 75.0 °F 68.0 °F 79% 30.13 in 10.0 mi South 3.5 mph - N/A   Partly Cloudy
7:53 PM 73.9 °F 66.9 °F 79% 30.12 in 10.0 mi Variable 4.6 mph - N/A   Clear
8:53 PM 73.0 °F 66.9 °F 81% 30.12 in 10.0 mi South 3.5 mph - N/A   Clear
10:53 PM 72.0 °F 69.1 °F 91% 30.10 in 10.0 mi South 3.5 mph - N/A   Clear
11:53 PM 73.0 °F 70.0 °F 90% 30.09 in 10.0 mi South 4.6 mph - N/A   Clear